Air Resources Laboratory banner image
Air Resources Laboratory web site National Oceanic and Atmospheric Administration (NOAA)

sc roundup


Office: CAE

ASUS42 KCAE 180810
RWRCAE
REGIONAL WEATHER ROUNDUP
NATIONAL WEATHER SERVICE COLUMBIA SC
300 AM EST SUN NOV 18 2018

NOTE: "FAIR" INDICATES FEW OR NO CLOUDS BELOW 12,000 FEET WITH NO
SIGNIFICANT WEATHER AND/OR OBSTRUCTIONS TO VISIBILITY.

NOT ALL STATIONS ARE QUALITY CONTROLLED BY THE NATIONAL
WEATHER SERVICE. USE DATA WITH CAUTION...ESPECIALLY
DEWPOINT OBSERVATIONS.

SCZ001>056-GAZ040-063>065-077-180900-
...UPSTATE SOUTH CAROLINA...

CITY           SKY/WX    TMP DP  RH WIND       PRES   REMARKS
ANDERSON       FAIR      38  36  92 CALM      30.24F
LIBERTY        FAIR      32  32 100 N5        30.23F WCI  27
SPARTANBURG    FAIR      37  36  93 CALM      30.25F
CLEMSON        FOG       39  39 100 N3        30.25F VSB 1/4
GREENVILLE     FAIR      41  38  89 CALM      30.25F
GREENWOOD      FAIR      35  35 100 CALM      30.26S
GREER          FAIR      41  37  86 CALM      30.25F
ROCK HILL      FAIR      34  34 100 CALM      30.27S FOG
CHESTER        FAIR      37  37 100 N3        30.27S FOG
LAURENS        FAIR      34  34 100 N3        30.25S


...CENTRAL SOUTH CAROLINA...

CITY           SKY/WX    TMP DP  RH WIND       PRES   REMARKS
COLUMBIA APT   FAIR      39  36  89 SW3       30.25S
COLUMBIA OWENS FAIR      43  40  89 CALM      30.27S FOG
MCENTIRE ANGB  FAIR      38  38 100 NW3       30.26R
ORANGEBURG     FAIR      42  40  92 CALM      30.25S
SUMTER SHAW    FAIR      41  39  93 N3          N/A
AIKEN          FAIR      37  37 100 CALM      30.28R
BARNWELL       PTSUNNY   43  41  93 CALM      30.24S
MANNING        FAIR      37  37 100 NE3       30.25F
CAMDEN         FAIR      37  36  93 CALM      30.27S
LANCASTER        N/A     36  36 100 CALM      30.27S FOG
WINNSBORO      FAIR      41  39  93 CALM      30.26R


...EASTERN AND COASTAL SOUTH CAROLINA...

CITY           SKY/WX    TMP DP  RH WIND       PRES   REMARKS
MYRTLE BEACH   FAIR      48  43  82 N7        30.27R
N MYRTLE BCH   FAIR      47  43  86 N6        30.25S
MARION         FAIR      39  37  93 CALM      30.27S
HARTSVILLE     FAIR      43  41  93 NE3       30.26F
FLORENCE       FAIR      43  41  93 NE3       30.27R
DARLINGTON     FAIR      39  38  96 CALM      30.27S
CHARLESTON APT FAIR      50  48  93 N5        30.22S
WALTERBORO     CLOUDY    46  45  93 CALM      30.24S
HILTON HEAD    MOCLDY    59  55  88 N8        30.20F


...EASTERN GEORGIA...

CITY           SKY/WX    TMP DP  RH WIND       PRES   REMARKS
AUGUSTA BUSH F FAIR      40  39  97 NW3       30.25R FOG
AUGUSTA DANIEL FAIR      47  43  86 NE3       30.24F
THOMSON        CLOUDY    37  36  99 CALM      30.29S FOG
CLAXTON        FAIR      44  43  98 CALM      30.22S FOG
SYLVANIA       FAIR      42  42  99 CALM      30.23S
STATESBORO     FAIR      42  42 100 CALM      30.22S
SAVANNAH       CLOUDY    53  52  96 CALM      30.21S


...SOUTHERN NORTH CAROLINA...

CITY           SKY/WX    TMP DP  RH WIND       PRES   REMARKS
CHARLOTTE      FAIR      34  34 100 CALM      30.27R
MONROE         FAIR      38  35  89 CALM      30.26R FOG
ROCKINGHAM     FAIR      39  39 100 CALM      30.27S
ASHEVILLE      FAIR      32  30  92 CALM      30.25F

$$




Office: CHS ASUS42 KCHS 180812 RWRCHS Regional Weather Roundup National Weather Service Charleston SC 300 AM EST SUN NOV 18 2018 NOTE: "fair" indicates few or no clouds below 12,000 feet with no significant weather and/or obstructions to visibility. Not all stations are quality controlled. Use data with caution, especially dewpoint observations. SCZ027-030-031-034>040-042>050-180900- ...Southeast South Carolina... CITY SKY/WX TMP DP RH WIND PRES REMARKS N Charleston FAIR 50 48 93 N5 30.22S Waterfront Prk N/A 57 53 86 N7 30.08R Mount Pleasant NOT AVBL Johns Island CLOUDY 55 52 88 N6 30.22S Pinopolis N/A 54 50 87 VRB3 30.16R Moncks Corner CLOUDY 50 48 93 CALM 30.23F Summerville PTSUNNY 46 45 93 N3 30.24F Beaufort MCAS NOT AVBL Beaufort Arpt NOT AVBL Hilton Head Is MOCLDY 59 55 88 N8 30.20F Walterboro CLOUDY 46 45 93 CALM 30.24S Allendale FAIR 46 46 100 CALM 30.23S ...Southern Midlands and Pee Dee... CITY SKY/WX TMP DP RH WIND PRES REMARKS Georgetown FAIR 45 43 93 NE3 30.25R Kingstree FAIR 43 41 93 CALM 30.26S Orangeburg FAIR 42 40 92 CALM 30.25S Barnwell PTSUNNY 43 41 93 CALM 30.24S Aiken FAIR 37 37 100 CALM 30.28R Manning FAIR 37 37 100 NE3 30.25F Columbia FAIR 39 36 89 SW3 30.25S Sumter FAIR 41 39 93 N3 N/A Florence FAIR 43 41 93 NE3 30.27R Myrtle Beach FAIR 48 43 82 N7 30.27R N Myrtle Beach FAIR 47 43 86 N6 30.25S $$ GAZ063-065-086>088-099>101-113>116-118-119-134>141-150-180900- ...Southeast Georgia... CITY SKY/WX TMP DP RH WIND PRES REMARKS Savannah Arpt CLOUDY 53 52 96 CALM 30.21S Hunter AAF LGT RAIN 57 54 88 W5 30.18 Fort Stewart FAIR 51 49 94 CALM 30.18S Statesboro FAIR 42 42 100 CALM 30.22S Sylvania FAIR 42 42 99 CALM 30.23S Claxton FAIR 44 43 98 CALM 30.22S FOG ...CSRA, Central and far Southeast Georgia... CITY SKY/WX TMP DP RH WIND PRES REMARKS Thomson CLOUDY 37 36 99 CALM 30.29S FOG Augusta-Bush FAIR 40 39 97 NW3 30.25R FOG Augusta-Daniel FAIR 47 43 86 NE3 30.24F Swainsboro NOT AVBL Vidalia FAIR 46 43 87 CALM 30.22S Eastman N/A 40 40 100 CALM 30.24S FOG Hazlehurst FAIR 47 44 90 CALM 30.20S Alma FAIR 46 43 89 CALM 30.20S Waycross FAIR 46 44 90 CALM 30.20R Jesup FAIR 52 48 87 CALM 30.20S FOG Baxley FAIR 43 43 100 CALM 30.20S Brunswick MOCLDY 55 54 94 CALM 30.19S Saint Simons CLOUDY 59 56 89 N7 30.17F $$ SCZ027-028-034-036>038-045-046-048>050-GAZ119-141-180900- ...Lake and Supplemental Coastal Observations... STATION/POSITION TIME TEMP WIND PRES WAVE SWELL AIR SEA DIR/SP/G HT/PER HT/PER/DIR (UTC) (F) (DEG/KT/KT) (MB) (FT/S) (FT/S/D) Winyah Bay 0645 48 330/ 3 1024.0 Lake Murray 0720 45 CALM 1023.7 ACE Basin NERRS NOT AVBL Fort Pulaski 0736 58 62 20/ 5/ 6 1022.6F Sapelo Island 0700 57 20/ 7 1022.0 $$ ANZ835-935-AMZ111-154-330-350-352-354-370-450-454-472-180900- ...C-MAN and Buoy Observations... STATION/POSITION TIME TEMP WIND PRES WAVE SWELL AIR SEA DIR/SP/G HT/PER HT/PER/DIR (UTC) (F) (DEG/KT/KT) (MB) (FT/S) (FT/S/D) Buoy 41004 0750 77 80/ 12/ 16 1022.9R 3/10 3/130/10 Buoy 41008 0750 67 69 20/ 16/ 17 1020.9F 4/ 5 2/130/ 9 Folly Beach CMAN 0700 63 60/ 12/ 14 1023.3F Capers Nearshore NOT AVBL STATION/POSITION TIME TEMP WIND PRES WAVE SWELL AIR SEA DIR/SP/G HT/PER HT/PER/DIR (UTC) (F) (DEG/KT/KT) (MB) (FT/S) (FT/S/D) 5E St. Marys GA 0800 68 N/A 4/10 2/110/11 Frying Pan Buoy 0750 65 72 20/ 8/ 12 1023.8F 4/ 8 3/110/ 8 Buoy 41025 0750 59 76 20/ 17/ 23 1025.1R 5/10 3/110/10 Cape Lookout NC 0700 10/ 14/ 17 1025.2R Buoy 41002 0750 77 1021.4 5/10 5/120/10 Buoy 41010 0750 75 81 60/ 14/ 19 1020.2R St Augustine FL 0800 63 69 330/ 9/ 10 1020.8F $$ ASUS42 KCHS 180827 RWRCHS Regional Weather Roundup National Weather Service Charleston SC 300 AM EST SUN NOV 18 2018 NOTE: "fair" indicates few or no clouds below 12,000 feet with no significant weather and/or obstructions to visibility. Not all stations are quality controlled. Use data with caution, especially dewpoint observations. SCZ027-030-031-034>040-042>050-180900- ...Southeast South Carolina... CITY SKY/WX TMP DP RH WIND PRES REMARKS N Charleston FAIR 50 48 93 N5 30.22S Waterfront Prk N/A 57 53 86 N7 30.08R Mount Pleasant FAIR 48 48 100 CALM 30.23S Johns Island CLOUDY 55 52 88 N5 30.22S Pinopolis N/A 54 50 87 VRB3 30.16R Moncks Corner CLOUDY 50 48 93 NE5 30.23F Summerville PTSUNNY 46 45 93 N3 30.24F Beaufort MCAS NOT AVBL Beaufort Arpt CLOUDY 55 50 82 NE7 30.20S Hilton Head Is MOCLDY 59 55 88 N9 30.20S Walterboro FAIR 46 45 93 CALM 30.24R Allendale FAIR 46 46 100 CALM 30.23S ...Southern Midlands and Pee Dee... CITY SKY/WX TMP DP RH WIND PRES REMARKS Georgetown FAIR 45 43 93 NE3 30.25R Kingstree FAIR 41 39 93 CALM 30.26R Orangeburg FAIR 42 40 92 CALM 30.25S Barnwell PTSUNNY 41 41 100 CALM 30.24S Aiken FAIR 36 36 100 CALM 30.27S Manning FAIR 37 37 100 CALM 30.25F Columbia FAIR 39 36 89 SW3 30.25S Sumter FAIR 41 39 93 N3 N/A Florence FAIR 43 41 93 NE3 30.27R Myrtle Beach FAIR 48 43 82 N7 30.27R N Myrtle Beach FAIR 47 43 86 N6 30.25S $$ GAZ063-065-086>088-099>101-113>116-118-119-134>141-150-180900- ...Southeast Georgia... CITY SKY/WX TMP DP RH WIND PRES REMARKS Savannah Arpt CLOUDY 53 52 96 CALM 30.21S Hunter AAF CLOUDY 57 54 88 N6 30.17 Fort Stewart FAIR 51 49 94 CALM 30.18S Statesboro FAIR 43 43 100 CALM 30.22S Sylvania FAIR 43 43 100 CALM 30.24R Claxton FAIR 43 43 98 CALM 30.22S FOG ...CSRA, Central and far Southeast Georgia... CITY SKY/WX TMP DP RH WIND PRES REMARKS Thomson FOG 37 36 99 CALM 30.28F VSB 1/4 Augusta-Bush MOCLDY 40 39 97 CALM 30.24F FOG Augusta-Daniel FAIR 47 43 86 NE3 30.24F Swainsboro NOT AVBL Vidalia FAIR 46 43 87 CALM 30.22S Eastman N/A 40 40 100 CALM 30.24S FOG Hazlehurst FAIR 47 44 90 CALM 30.20S Alma FAIR 46 43 89 CALM 30.20S Waycross FAIR 46 44 91 CALM 30.19S Jesup PTSUNNY 52 48 87 CALM 30.20R Baxley FAIR 43 43 100 CALM 30.20S Brunswick FAIR 55 54 94 CALM 30.18F Saint Simons CLOUDY 59 56 89 N7 30.17F $$ SCZ027-028-034-036>038-045-046-048>050-GAZ119-141-180900- ...Lake and Supplemental Coastal Observations... STATION/POSITION TIME TEMP WIND PRES WAVE SWELL AIR SEA DIR/SP/G HT/PER HT/PER/DIR (UTC) (F) (DEG/KT/KT) (MB) (FT/S) (FT/S/D) Winyah Bay 0745 52 360/ 4 1024.0S Lake Murray 0720 45 CALM 1023.7 ACE Basin NERRS 0745 54 360/ 1 1023.0S Fort Pulaski 0800 58 62 360/ 5/ 7 1022.7 Sapelo Island 0800 58 10/ 7 1022.0 $$ ANZ835-935-AMZ111-154-330-350-352-354-370-450-454-472-180900- ...C-MAN and Buoy Observations... STATION/POSITION TIME TEMP WIND PRES WAVE SWELL AIR SEA DIR/SP/G HT/PER HT/PER/DIR (UTC) (F) (DEG/KT/KT) (MB) (FT/S) (FT/S/D) Buoy 41004 0810 77 80/ 12/ 16 1023.0 Buoy 41008 0750 67 69 20/ 16/ 17 1020.9F 4/ 5 2/130/ 9 Folly Beach CMAN 0800 59 20/ 9/ 11 1023.6R Capers Nearshore NOT AVBL STATION/POSITION TIME TEMP WIND PRES WAVE SWELL AIR SEA DIR/SP/G HT/PER HT/PER/DIR (UTC) (F) (DEG/KT/KT) (MB) (FT/S) (FT/S/D) 5E St. Marys GA 0800 68 N/A 4/10 2/110/11 Frying Pan Buoy 0810 65 72 30/ 8/ 12 1023.7 Buoy 41025 0810 59 76 20/ 17/ 21 1024.9 Cape Lookout NC 0800 10/ 15/ 18 1025.3R Buoy 41002 0810 77 N/A Buoy 41010 0810 75 81 60/ 14/ 19 1020.2 St Augustine FL 0800 63 69 330/ 9/ 10 1020.8F $$